Location: ????????
(41.2031°N, 22.5756°E)
Time: 15:28:00
(UTC+00:00)

NOSS 3-3 (C) - Pass Details

Date: 01 December 2020
Orbit: 820 x 1392 km, 63.4° (Epoch: 14 January)

Event Time Altitude Azimuth Distance (km) Brightness Sun altitude
Rises 17:34:58 0° 324° (NW) 4,016 7.6 -28.2°
Reaches altitude 10° 17:37:33 10° 324° (NW) 3,128 7.0 -28.7°
Maximum altitude 17:45:15 87° 237° (WSW) 1,306 4.5 -30.2°
Enters shadow 17:48:01 48° 150° (SSE) 1,689 4.9 -30.7°
